User: anonymous   Login
Location: Brede
(50.9167°N, 0.6000°E)
Time: 07:16:31
(UTC+00:00)
Language:

Cosmos 2297 Rocket - Orbit

View from above orbital plane
View from above orbital plane
View from above satellite
View from above satellite

Ground track
Ground track

The orbit data is extracted from the following two-line orbital elements,

1 23405U 94077B   20293.95551705 -.00000153 +00000-0 -54078-4 0  9993
2 23405 070.9836 168.6856 0005118 271.2747 088.7789 14.15228360338221
Epoch (UTC): 19 October 2020 22:55:56
Eccentricity: 0.0005118
inclination: 70.9836°
perigee height: 838 km
apogee height: 845 km
right ascension of ascending node: 168.6856°
argument of perigee: 271.2747°
revolutions per day: 14.15228360
mean anomaly at epoch: 88.7789°
orbit number at epoch: 33822

The dashed part of the orbit path shows where the satellite is in the earth's shadow,  

DLR